SCOUT A DEB, 2580

Orbit data source: Space-Track

SCOUT A DEB, 2580 is space debris in LEO originally from a launch on Thu, 18 Aug 1966 UTC launched from the Air Force Western Test Range (AFWTR). Debris objects in space refer to the collection of defunct objects orbiting the Earth. Examples of debris include non-operational satellites, rocket bodies, and fragments generated from explosions, collisions, or faulty payload assembly.

Loading next visibility...
Identifier
2580, 1966-076C
Orbit
LEO
Last TLE update
14 hours ago
Origin
Manufacturer
Unknown
Mission
Spacecraft
Bus & Motor
Unknown
Mass
Unknown
Launch date (UTC)
1966-08-18 (59 years ago)
Launch vehicle
Unknown
Launch site
Air Force Western Test Range (AFWTR)
Object type
Payload
Rocket body
Debris
Shape & HBR
Unknown
Radar Cross Section
Small (<0.1 m²)

Expand to show TLE details & history

TLE from 14 hours ago
0 SCOUT A DEB
1 02580U 66076C   25186.37451888  .00000224  00000-0  20289-3 0  9998
2 02580  89.1475 318.1992 0092925 296.5708 124.7491 13.78546483944125
Epoch: 2025-07-05T08:59Z
TLE epoch observation values (Epoch: 2025-07-05T08:59:18.431Z)
Latitude
62.26439°
Longitude
-98.62779°
Altitude
1,019.162 km
Speed
7.328 km/s
True Right ascension
21h 19m 14s
True Declination
62° 07' 39"
Sunlit
Object was in daylight at epoch
Visualization orbit readout
Latitude
12.07239°
Longitude
-100.11116°
Altitude
955.64 km
Speed
7.383 km/s
Apparent Right ascension
21h 47m 14s
Apparent Declination
-12° 05' 52"
Sunlit
Object is in full shadow
Visualization observer readout
Local Sidereal Time
10:37:07
Azimuth
25.046° NE
Elevation
-60.082°
Doppler factor
1
Orbital elements
Apogee altitude
1,034.302 km
Perigee altitude
897.811 km
Semi-major axis
7,344.194 km
Eccentricity
0.00929
Inclination
89.1475°
RAAN
318.1992°
Arg. of periapsis
296.5708°
True anomaly
Unknown
Mean anomaly
124.7491°
Eccentric anomaly
Unknown
Mean motion
3.44847 °/min
Orbital period
104.39 mins
BSTAR
0.00020289
Loading maneuver chart data...
Loading SW <> Apogee altitude chart data...
Loading historical data...
Loading historical data...
Loading historical data...
Loading historical data...
Loading historical data...
Loading historical data...
Loading historical data...

SCOUT A DEB Visibility forecast

Observer location: undefined°, undefined°

Span
Click to sort rows by Start time (UTC) header in descending order
Start Az.
Max El. time (UTC)
Max El. Az.
Max El.
End time (UTC)
End Az.
4 mins2025-07-06 07:30:53.660Z87.912° E2025-07-06 07:32:53.660Z68.3° E12.13°2025-07-06 07:34:53.660Z49.167° ENE
10 mins2025-07-06 09:11:53.660Z176.207° S2025-07-06 09:15:53.660Z159.853° S44.862°2025-07-06 09:21:53.660Z359.396° N
4 mins2025-07-06 10:59:53.660Z271.183° WNW2025-07-06 11:01:53.660Z291.283° WNW12.349°2025-07-06 11:03:53.660Z310.22° NW
10 mins2025-07-06 20:07:53.660Z25.741° NE2025-07-06 20:12:53.660Z87.951° E28.258°2025-07-06 20:17:53.660Z143.187° SSE
9 mins2025-07-06 21:52:53.660Z336.607° NNW2025-07-06 21:56:53.660Z281.972° WNW31.907°2025-07-06 22:01:53.660Z218.35° SW
|